Time,TemperatureF,DewpointF,PressureIn,WindDirection,WindDirectionDegrees,WindSpeedMPH,WindSpeedGustMPH,Humidity,HourlyPrecipIn,Conditions,Clouds,dailyrainin,SoftwareType,DateUTC
2013-06-06 00:00:00,73.0,53.2,29.75,North,-999,-999.0,-999.0,50,-99.99,,,-99.99,meteohub,2013-06-06 04:00:00,
2013-06-06 00:01:00,73.0,53.2,29.75,North,-999,-999.0,-999.0,50,-99.99,,,-99.99,meteohub,2013-06-06 04:01:00,
2013-06-06 00:02:00,72.9,53.1,29.75,North,-999,-999.0,-999.0,50,-99.99,,,-99.99,meteohub,2013-06-06 04:02:00,
2013-06-06 00:04:00,72.9,53.1,29.75,North,-999,-999.0,-999.0,50,-99.99,,,-99.99,meteohub,2013-06-06 04:04:00,
2013-06-06 00:09:00,72.7,53.1,29.75,North,-999,-999.0,-999.0,50,-99.99,,,-99.99,meteohub,2013-06-06 04:09:00,
2013-06-06 00:14:00,72.5,53.4,29.75,North,-999,-999.0,-999.0,51,-99.99,,,-99.99,meteohub,2013-06-06 04:14:00,
2013-06-06 00:19:00,72.3,53.2,29.75,North,-999,-999.0,-999.0,51,-99.99,,,-99.99,meteohub,2013-06-06 04:19:00,
2013-06-06 00:24:00,72.1,53.1,29.75,North,-999,-999.0,-999.0,51,-99.99,,,-99.99,meteohub,2013-06-06 04:24:00,
2013-06-06 00:29:00,72.0,52.9,29.75,North,-999,-999.0,-999.0,51,-99.99,,,-99.99,meteohub,2013-06-06 04:29:00,
2013-06-06 00:34:00,71.8,53.2,29.72,North,-999,-999.0,-999.0,52,-99.99,,,-99.99,meteohub,2013-06-06 04:34:00,
2013-06-06 00:40:00,71.8,53.2,29.72,North,-999,-999.0,-999.0,52,-99.99,,,-99.99,meteohub,2013-06-06 04:40:00,
2013-06-06 00:45:00,71.6,53.6,29.72,North,-999,-999.0,-999.0,53,-99.99,,,-99.99,meteohub,2013-06-06 04:45:00,
2013-06-06 00:50:00,71.4,54.0,29.75,North,-999,-999.0,-999.0,54,-99.99,,,-99.99,meteohub,2013-06-06 04:50:00,
2013-06-06 00:55:00,71.2,54.3,29.75,North,-999,-999.0,-999.0,55,-99.99,,,-99.99,meteohub,2013-06-06 04:55:00,
2013-06-06 01:00:00,71.1,54.1,29.75,North,-999,-999.0,-999.0,55,-99.99,,,-99.99,meteohub,2013-06-06 05:00:00,
2013-06-06 01:05:00,71.1,54.5,29.75,North,-999,-999.0,-999.0,56,-99.99,,,-99.99,meteohub,2013-06-06 05:05:00,
2013-06-06 01:11:00,70.9,54.5,29.75,North,-999,-999.0,-999.0,56,-99.99,,,-99.99,meteohub,2013-06-06 05:11:00,
2013-06-06 01:16:00,70.9,54.9,29.75,North,-999,-999.0,-999.0,57,-99.99,,,-99.99,meteohub,2013-06-06 05:16:00,
2013-06-06 01:21:00,70.7,54.7,29.72,North,-999,-999.0,-999.0,57,-99.99,,,-99.99,meteohub,2013-06-06 05:21:00,
2013-06-06 01:26:00,70.5,54.5,29.72,North,-999,-999.0,-999.0,57,-99.99,,,-99.99,meteohub,2013-06-06 05:26:00,
2013-06-06 01:32:00,70.5,54.5,29.72,North,-999,-999.0,-999.0,57,-99.99,,,-99.99,meteohub,2013-06-06 05:32:00,
2013-06-06 01:37:00,70.3,54.3,29.72,North,-999,-999.0,-999.0,57,-99.99,,,-99.99,meteohub,2013-06-06 05:37:00,
2013-06-06 01:42:00,70.3,54.9,29.72,North,-999,-999.0,-999.0,58,-99.99,,,-99.99,meteohub,2013-06-06 05:42:00,
2013-06-06 01:47:00,70.2,54.7,29.72,North,-999,-999.0,-999.0,58,-99.99,,,-99.99,meteohub,2013-06-06 05:47:00,
2013-06-06 01:52:00,70.2,54.7,29.72,North,-999,-999.0,-999.0,58,-99.99,,,-99.99,meteohub,2013-06-06 05:52:00,
2013-06-06 01:57:00,70.0,54.5,29.72,North,-999,-999.0,-999.0,58,-99.99,,,-99.99,meteohub,2013-06-06 05:57:00,
2013-06-06 02:02:00,70.0,54.1,29.72,North,-999,-999.0,-999.0,57,-99.99,,,-99.99,meteohub,2013-06-06 06:02:00,
2013-06-06 02:07:00,70.0,54.1,29.72,North,-999,-999.0,-999.0,57,-99.99,,,-99.99,meteohub,2013-06-06 06:07:00,
2013-06-06 02:12:00,70.0,54.5,29.72,North,-999,-999.0,-999.0,58,-99.99,,,-99.99,meteohub,2013-06-06 06:12:00,
2013-06-06 02:17:00,69.8,54.3,29.72,North,-999,-999.0,-999.0,58,-99.99,,,-99.99,meteohub,2013-06-06 06:17:00,
2013-06-06 02:22:00,69.8,54.0,29.72,North,-999,-999.0,-999.0,57,-99.99,,,-99.99,meteohub,2013-06-06 06:22:00,
2013-06-06 02:27:00,69.8,54.0,29.72,North,-999,-999.0,-999.0,57,-99.99,,,-99.99,meteohub,2013-06-06 06:27:00,
2013-06-06 02:32:00,69.6,54.1,29.72,North,-999,-999.0,-999.0,58,-99.99,,,-99.99,meteohub,2013-06-06 06:32:00,
2013-06-06 02:37:00,69.6,54.1,29.72,North,-999,-999.0,-999.0,58,-99.99,,,-99.99,meteohub,2013-06-06 06:37:00,
2013-06-06 02:42:00,69.6,54.1,29.72,North,-999,-999.0,-999.0,58,-99.99,,,-99.99,meteohub,2013-06-06 06:42:00,
2013-06-06 02:47:00,69.6,54.1,29.72,North,-999,-999.0,-999.0,58,-99.99,,,-99.99,meteohub,2013-06-06 06:47:00,
2013-06-06 02:52:00,69.4,54.5,29.72,North,-999,-999.0,-999.0,59,-99.99,,,-99.99,meteohub,2013-06-06 06:52:00,
2013-06-06 02:58:00,69.4,54.5,29.72,North,-999,-999.0,-999.0,59,-99.99,,,-99.99,meteohub,2013-06-06 06:58:00,
2013-06-06 03:03:00,69.4,54.5,29.72,North,-999,-999.0,-999.0,59,-99.99,,,-99.99,meteohub,2013-06-06 07:03:00,
2013-06-06 03:08:00,69.4,55.0,29.69,North,-999,-999.0,-999.0,60,-99.99,,,-99.99,meteohub,2013-06-06 07:08:00,
2013-06-06 03:13:00,69.3,54.9,29.69,North,-999,-999.0,-999.0,60,-99.99,,,-99.99,meteohub,2013-06-06 07:13:00,
2013-06-06 03:18:00,69.3,54.9,29.69,North,-999,-999.0,-999.0,60,-99.99,,,-99.99,meteohub,2013-06-06 07:18:00,
2013-06-06 03:23:00,69.3,54.9,29.69,North,-999,-999.0,-999.0,60,-99.99,,,-99.99,meteohub,2013-06-06 07:23:00,
2013-06-06 03:28:00,69.1,55.0,29.69,North,-999,-999.0,-999.0,61,-99.99,,,-99.99,meteohub,2013-06-06 07:28:00,
2013-06-06 03:33:00,69.1,55.0,29.69,North,-999,-999.0,-999.0,61,-99.99,,,-99.99,meteohub,2013-06-06 07:33:00,
2013-06-06 03:38:00,69.1,55.0,29.69,North,-999,-999.0,-999.0,61,-99.99,,,-99.99,meteohub,2013-06-06 07:38:00,
2013-06-06 03:44:00,69.1,55.6,29.69,North,-999,-999.0,-999.0,62,-99.99,,,-99.99,meteohub,2013-06-06 07:44:00,
2013-06-06 03:49:00,69.1,55.6,29.69,North,-999,-999.0,-999.0,62,-99.99,,,-99.99,meteohub,2013-06-06 07:49:00,
2013-06-06 03:54:00,69.1,55.6,29.69,North,-999,-999.0,-999.0,62,-99.99,,,-99.99,meteohub,2013-06-06 07:54:00,
2013-06-06 03:59:00,69.1,55.9,29.69,North,-999,-999.0,-999.0,63,-99.99,,,-99.99,meteohub,2013-06-06 07:59:00,
2013-06-06 04:04:00,69.1,55.9,29.69,North,-999,-999.0,-999.0,63,-99.99,,,-99.99,meteohub,2013-06-06 08:04:00,
2013-06-06 04:09:00,69.1,56.5,29.69,North,-999,-999.0,-999.0,64,-99.99,,,-99.99,meteohub,2013-06-06 08:09:00,
2013-06-06 04:15:00,68.9,56.3,29.69,North,-999,-999.0,-999.0,64,-99.99,,,-99.99,meteohub,2013-06-06 08:15:00,
2013-06-06 04:20:00,68.9,56.7,29.69,North,-999,-999.0,-999.0,65,-99.99,,,-99.99,meteohub,2013-06-06 08:20:00,
2013-06-06 04:25:00,68.7,56.8,29.69,North,-999,-999.0,-999.0,66,-99.99,,,-99.99,meteohub,2013-06-06 08:25:00,
2013-06-06 04:30:00,68.5,57.2,29.69,North,-999,-999.0,-999.0,67,-99.99,,,-99.99,meteohub,2013-06-06 08:30:00,
2013-06-06 04:35:00,68.2,57.2,29.69,North,-999,-999.0,-999.0,68,-99.99,,,-99.99,meteohub,2013-06-06 08:35:00,
2013-06-06 04:40:00,68.0,57.0,29.69,North,-999,-999.0,-999.0,68,-99.99,,,-99.99,meteohub,2013-06-06 08:40:00,
2013-06-06 04:46:00,67.6,57.6,29.69,North,-999,-999.0,-999.0,70,-99.99,,,-99.99,meteohub,2013-06-06 08:46:00,
2013-06-06 04:51:00,67.5,57.4,29.66,North,-999,-999.0,-999.0,70,-99.99,,,-99.99,meteohub,2013-06-06 08:51:00,
2013-06-06 04:56:00,67.3,57.6,29.66,North,-999,-999.0,-999.0,71,-99.99,,,-99.99,meteohub,2013-06-06 08:56:00,
2013-06-06 05:02:00,67.1,57.7,29.66,North,-999,-999.0,-999.0,72,-99.99,,,-99.99,meteohub,2013-06-06 09:02:00,
2013-06-06 05:07:00,66.9,57.9,29.66,North,-999,-999.0,-999.0,73,-99.99,,,-99.99,meteohub,2013-06-06 09:07:00,
2013-06-06 05:12:00,66.7,57.7,29.66,North,-999,-999.0,-999.0,73,-99.99,,,-99.99,meteohub,2013-06-06 09:12:00,
2013-06-06 05:17:00,66.7,58.3,29.66,North,-999,-999.0,-999.0,74,-99.99,,,-99.99,meteohub,2013-06-06 09:17:00,
2013-06-06 05:22:00,66.6,58.1,29.66,North,-999,-999.0,-999.0,74,-99.99,,,-99.99,meteohub,2013-06-06 09:22:00,
2013-06-06 05:27:00,66.6,58.5,29.66,North,-999,-999.0,-999.0,75,-99.99,,,-99.99,meteohub,2013-06-06 09:27:00,
2013-06-06 05:32:00,66.6,58.8,29.66,North,-999,-999.0,-999.0,76,-99.99,,,-99.99,meteohub,2013-06-06 09:32:00,
2013-06-06 05:37:00,66.7,59.0,29.66,North,-999,-999.0,-999.0,76,-99.99,,,-99.99,meteohub,2013-06-06 09:37:00,
2013-06-06 05:42:00,66.9,59.2,29.66,North,-999,-999.0,-999.0,76,-99.99,,,-99.99,meteohub,2013-06-06 09:42:00,
2013-06-06 05:47:00,66.9,59.2,29.66,North,-999,-999.0,-999.0,76,-99.99,,,-99.99,meteohub,2013-06-06 09:47:00,
2013-06-06 05:53:00,67.1,59.7,29.66,North,-999,-999.0,-999.0,77,-99.99,,,-99.99,meteohub,2013-06-06 09:53:00,
2013-06-06 05:58:00,67.1,59.4,29.66,North,-999,-999.0,-999.0,76,-99.99,,,-99.99,meteohub,2013-06-06 09:58:00,
2013-06-06 06:03:00,67.1,59.7,29.66,North,-999,-999.0,-999.0,77,-99.99,,,-99.99,meteohub,2013-06-06 10:03:00,
2013-06-06 06:08:00,67.3,59.9,29.66,North,-999,-999.0,-999.0,77,-99.99,,,-99.99,meteohub,2013-06-06 10:08:00,
2013-06-06 06:13:00,67.3,59.9,29.66,North,-999,-999.0,-999.0,77,-99.99,,,-99.99,meteohub,2013-06-06 10:13:00,
2013-06-06 06:18:00,67.3,59.9,29.66,North,-999,-999.0,-999.0,77,-99.99,,,-99.99,meteohub,2013-06-06 10:18:00,
2013-06-06 06:23:00,67.5,60.1,29.66,North,-999,-999.0,-999.0,77,-99.99,,,-99.99,meteohub,2013-06-06 10:23:00,
2013-06-06 06:29:00,67.5,60.1,29.66,North,-999,-999.0,-999.0,77,-99.99,,,-99.99,meteohub,2013-06-06 10:29:00,
2013-06-06 06:34:00,67.5,60.1,29.66,North,-999,-999.0,-999.0,77,-99.99,,,-99.99,meteohub,2013-06-06 10:34:00,
2013-06-06 06:39:00,67.6,60.3,29.66,North,-999,-999.0,-999.0,77,-99.99,,,-99.99,meteohub,2013-06-06 10:39:00,
2013-06-06 06:44:00,67.6,60.3,29.66,North,-999,-999.0,-999.0,77,-99.99,,,-99.99,meteohub,2013-06-06 10:44:00,
2013-06-06 06:49:00,67.6,60.3,29.66,North,-999,-999.0,-999.0,77,-99.99,,,-99.99,meteohub,2013-06-06 10:49:00,
2013-06-06 06:55:00,67.6,60.6,29.66,North,-999,-999.0,-999.0,78,-99.99,,,-99.99,meteohub,2013-06-06 10:55:00,
2013-06-06 07:00:00,67.8,60.8,29.66,North,-999,-999.0,-999.0,78,-99.99,,,-99.99,meteohub,2013-06-06 11:00:00,
2013-06-06 07:05:00,67.8,60.8,29.66,North,-999,-999.0,-999.0,78,-99.99,,,-99.99,meteohub,2013-06-06 11:05:00,
2013-06-06 07:10:00,67.8,60.8,29.66,North,-999,-999.0,-999.0,78,-99.99,,,-99.99,meteohub,2013-06-06 11:10:00,
2013-06-06 07:15:00,68.0,60.8,29.66,North,-999,-999.0,-999.0,78,-99.99,,,-99.99,meteohub,2013-06-06 11:15:00,
2013-06-06 07:21:00,68.0,60.8,29.66,North,-999,-999.0,-999.0,78,-99.99,,,-99.99,meteohub,2013-06-06 11:21:00,
2013-06-06 07:26:00,68.0,60.8,29.66,North,-999,-999.0,-999.0,78,-99.99,,,-99.99,meteohub,2013-06-06 11:26:00,
2013-06-06 07:31:00,68.2,61.0,29.66,North,-999,-999.0,-999.0,78,-99.99,,,-99.99,meteohub,2013-06-06 11:31:00,
2013-06-06 07:36:00,68.2,60.6,29.66,North,-999,-999.0,-999.0,77,-99.99,,,-99.99,meteohub,2013-06-06 11:36:00,
2013-06-06 07:41:00,68.2,61.0,29.66,North,-999,-999.0,-999.0,78,-99.99,,,-99.99,meteohub,2013-06-06 11:41:00,
2013-06-06 07:47:00,68.2,61.0,29.66,North,-999,-999.0,-999.0,78,-99.99,,,-99.99,meteohub,2013-06-06 11:47:00,
2013-06-06 07:52:00,68.4,61.2,29.66,North,-999,-999.0,-999.0,78,-99.99,,,-99.99,meteohub,2013-06-06 11:52:00,
2013-06-06 07:57:00,68.5,61.3,29.66,North,-999,-999.0,-999.0,78,-99.99,,,-99.99,meteohub,2013-06-06 11:57:00,
2013-06-06 08:02:00,68.7,61.5,29.66,North,-999,-999.0,-999.0,78,-99.99,,,-99.99,meteohub,2013-06-06 12:02:00,
2013-06-06 08:07:00,68.7,61.5,29.66,North,-999,-999.0,-999.0,78,-99.99,,,-99.99,meteohub,2013-06-06 12:07:00,
2013-06-06 08:12:00,68.9,61.7,29.66,North,-999,-999.0,-999.0,78,-99.99,,,-99.99,meteohub,2013-06-06 12:12:00,
2013-06-06 08:17:00,68.9,61.7,29.66,North,-999,-999.0,-999.0,78,-99.99,,,-99.99,meteohub,2013-06-06 12:17:00,
2013-06-06 08:22:00,68.9,61.7,29.66,North,-999,-999.0,-999.0,78,-99.99,,,-99.99,meteohub,2013-06-06 12:22:00,
2013-06-06 08:27:00,69.1,61.9,29.66,North,-999,-999.0,-999.0,78,-99.99,,,-99.99,meteohub,2013-06-06 12:27:00,
2013-06-06 08:32:00,69.3,62.4,29.66,North,-999,-999.0,-999.0,79,-99.99,,,-99.99,meteohub,2013-06-06 12:32:00,
2013-06-06 08:37:00,69.6,62.8,29.66,North,-999,-999.0,-999.0,79,-99.99,,,-99.99,meteohub,2013-06-06 12:37:00,
2013-06-06 08:43:00,69.8,62.6,29.66,North,-999,-999.0,-999.0,78,-99.99,,,-99.99,meteohub,2013-06-06 12:43:00,
2013-06-06 08:48:00,70.2,63.3,29.66,North,-999,-999.0,-999.0,79,-99.99,,,-99.99,meteohub,2013-06-06 12:48:00,
2013-06-06 08:53:00,70.3,63.1,29.66,North,-999,-999.0,-999.0,78,-99.99,,,-99.99,meteohub,2013-06-06 12:53:00,
2013-06-06 08:58:00,70.5,63.3,29.66,North,-999,-999.0,-999.0,78,-99.99,,,-99.99,meteohub,2013-06-06 12:58:00,
2013-06-06 09:03:00,70.7,63.9,29.66,North,-999,-999.0,-999.0,79,-99.99,,,-99.99,meteohub,2013-06-06 13:03:00,
2013-06-06 09:08:00,70.9,63.7,29.66,North,-999,-999.0,-999.0,78,-99.99,,,-99.99,meteohub,2013-06-06 13:08:00,
2013-06-06 09:14:00,71.1,63.9,29.66,North,-999,-999.0,-999.0,78,-99.99,,,-99.99,meteohub,2013-06-06 13:14:00,
2013-06-06 09:19:00,71.2,64.0,29.66,North,-999,-999.0,-999.0,78,-99.99,,,-99.99,meteohub,2013-06-06 13:19:00,
2013-06-06 09:24:00,71.2,64.0,29.66,North,-999,-999.0,-999.0,78,-99.99,,,-99.99,meteohub,2013-06-06 13:24:00,
2013-06-06 09:29:00,71.4,64.2,29.66,North,-999,-999.0,-999.0,78,-99.99,,,-99.99,meteohub,2013-06-06 13:29:00,
2013-06-06 09:34:00,71.6,64.4,29.66,North,-999,-999.0,-999.0,78,-99.99,,,-99.99,meteohub,2013-06-06 13:34:00,
2013-06-06 09:40:00,71.8,64.2,29.66,North,-999,-999.0,-999.0,77,-99.99,,,-99.99,meteohub,2013-06-06 13:40:00,
2013-06-06 09:45:00,72.0,64.4,29.66,North,-999,-999.0,-999.0,77,-99.99,,,-99.99,meteohub,2013-06-06 13:45:00,
2013-06-06 09:50:00,72.0,64.4,29.66,North,-999,-999.0,-999.0,77,-99.99,,,-99.99,meteohub,2013-06-06 13:50:00,
2013-06-06 09:55:00,72.0,64.4,29.66,North,-999,-999.0,-999.0,77,-99.99,,,-99.99,meteohub,2013-06-06 13:55:00,
2013-06-06 10:00:00,72.0,64.4,29.66,North,-999,-999.0,-999.0,77,-99.99,,,-99.99,meteohub,2013-06-06 14:00:00,
2013-06-06 10:05:00,72.0,64.4,29.66,North,-999,-999.0,-999.0,77,-99.99,,,-99.99,meteohub,2013-06-06 14:05:00,
2013-06-06 10:11:00,72.1,64.6,29.66,North,-999,-999.0,-999.0,77,-99.99,,,-99.99,meteohub,2013-06-06 14:11:00,
2013-06-06 10:16:00,72.3,64.8,29.66,North,-999,-999.0,-999.0,77,-99.99,,,-99.99,meteohub,2013-06-06 14:16:00,
2013-06-06 10:21:00,72.3,64.8,29.66,North,-999,-999.0,-999.0,77,-99.99,,,-99.99,meteohub,2013-06-06 14:21:00,
2013-06-06 10:27:00,72.3,64.8,29.66,North,-999,-999.0,-999.0,77,-99.99,,,-99.99,meteohub,2013-06-06 14:27:00,
2013-06-06 10:32:00,72.3,64.8,29.66,North,-999,-999.0,-999.0,77,-99.99,,,-99.99,meteohub,2013-06-06 14:32:00,
2013-06-06 10:37:00,72.7,65.5,29.66,North,-999,-999.0,-999.0,78,-99.99,,,-99.99,meteohub,2013-06-06 14:37:00,
2013-06-06 10:42:00,72.9,65.7,29.66,North,-999,-999.0,-999.0,78,-99.99,,,-99.99,meteohub,2013-06-06 14:42:00,
2013-06-06 10:47:00,73.2,66.0,29.66,North,-999,-999.0,-999.0,78,-99.99,,,-99.99,meteohub,2013-06-06 14:47:00,
2013-06-06 10:52:00,73.2,65.7,29.66,North,-999,-999.0,-999.0,77,-99.99,,,-99.99,meteohub,2013-06-06 14:52:00,
2013-06-06 10:58:00,73.4,65.7,29.66,North,-999,-999.0,-999.0,77,-99.99,,,-99.99,meteohub,2013-06-06 14:58:00,
2013-06-06 11:03:00,73.6,65.8,29.66,North,-999,-999.0,-999.0,77,-99.99,,,-99.99,meteohub,2013-06-06 15:03:00,
2013-06-06 11:08:00,73.6,65.8,29.66,North,-999,-999.0,-999.0,77,-99.99,,,-99.99,meteohub,2013-06-06 15:08:00,
2013-06-06 11:13:00,73.8,66.0,29.66,North,-999,-999.0,-999.0,77,-99.99,,,-99.99,meteohub,2013-06-06 15:13:00,
2013-06-06 11:18:00,73.9,66.2,29.66,North,-999,-999.0,-999.0,77,-99.99,,,-99.99,meteohub,2013-06-06 15:18:00,
2013-06-06 11:23:00,73.9,66.2,29.66,North,-999,-999.0,-999.0,77,-99.99,,,-99.99,meteohub,2013-06-06 15:23:00,
2013-06-06 11:29:00,73.9,66.2,29.66,North,-999,-999.0,-999.0,77,-99.99,,,-99.99,meteohub,2013-06-06 15:29:00,
2013-06-06 11:34:00,73.9,66.2,29.66,North,-999,-999.0,-999.0,77,-99.99,,,-99.99,meteohub,2013-06-06 15:34:00,
2013-06-06 11:39:00,74.1,66.4,29.66,North,-999,-999.0,-999.0,77,-99.99,,,-99.99,meteohub,2013-06-06 15:39:00,
2013-06-06 11:44:00,74.1,66.4,29.66,North,-999,-999.0,-999.0,77,-99.99,,,-99.99,meteohub,2013-06-06 15:44:00,
2013-06-06 11:49:00,74.3,66.9,29.66,North,-999,-999.0,-999.0,78,-99.99,,,-99.99,meteohub,2013-06-06 15:49:00,
2013-06-06 11:54:00,74.5,66.7,29.66,North,-999,-999.0,-999.0,77,-99.99,,,-99.99,meteohub,2013-06-06 15:54:00,
2013-06-06 12:00:00,74.8,67.1,29.66,North,-999,-999.0,-999.0,77,-99.99,,,-99.99,meteohub,2013-06-06 16:00:00,
2013-06-06 12:05:00,75.6,67.8,29.63,North,-999,-999.0,-999.0,77,-99.99,,,-99.99,meteohub,2013-06-06 16:05:00,
2013-06-06 12:10:00,76.1,68.0,29.63,North,-999,-999.0,-999.0,76,-99.99,,,-99.99,meteohub,2013-06-06 16:10:00,
2013-06-06 12:15:00,76.5,68.4,29.63,North,-999,-999.0,-999.0,76,-99.99,,,-99.99,meteohub,2013-06-06 16:15:00,
2013-06-06 12:20:00,76.6,68.2,29.63,North,-999,-999.0,-999.0,75,-99.99,,,-99.99,meteohub,2013-06-06 16:20:00,
2013-06-06 12:25:00,76.8,68.4,29.63,North,-999,-999.0,-999.0,75,-99.99,,,-99.99,meteohub,2013-06-06 16:25:00,
2013-06-06 12:30:00,76.6,67.6,29.63,North,-999,-999.0,-999.0,74,-99.99,,,-99.99,meteohub,2013-06-06 16:30:00,
2013-06-06 12:36:00,76.3,67.5,29.63,North,-999,-999.0,-999.0,74,-99.99,,,-99.99,meteohub,2013-06-06 16:36:00,
2013-06-06 12:41:00,75.6,67.5,29.63,North,-999,-999.0,-999.0,76,-99.99,,,-99.99,meteohub,2013-06-06 16:41:00,
2013-06-06 12:46:00,75.0,67.6,29.63,North,-999,-999.0,-999.0,78,-99.99,,,-99.99,meteohub,2013-06-06 16:46:00,
2013-06-06 12:52:00,74.7,67.6,29.63,North,-999,-999.0,-999.0,79,-99.99,,,-99.99,meteohub,2013-06-06 16:52:00,
2013-06-06 12:57:00,74.3,67.3,29.63,North,-999,-999.0,-999.0,79,-99.99,,,-99.99,meteohub,2013-06-06 16:57:00,
2013-06-06 13:02:00,74.1,67.6,29.63,North,-999,-999.0,-999.0,80,-99.99,,,-99.99,meteohub,2013-06-06 17:02:00,
2013-06-06 13:07:00,74.1,68.0,29.63,North,-999,-999.0,-999.0,81,-99.99,,,-99.99,meteohub,2013-06-06 17:07:00,
2013-06-06 13:12:00,73.8,67.6,29.63,North,-999,-999.0,-999.0,81,-99.99,,,-99.99,meteohub,2013-06-06 17:12:00,
2013-06-06 13:17:00,73.8,68.0,29.63,North,-999,-999.0,-999.0,82,-99.99,,,-99.99,meteohub,2013-06-06 17:17:00,
2013-06-06 13:22:00,73.8,68.4,29.63,North,-999,-999.0,-999.0,83,-99.99,,,-99.99,meteohub,2013-06-06 17:22:00,
2013-06-06 13:27:00,73.9,68.7,29.63,North,-999,-999.0,-999.0,84,-99.99,,,-99.99,meteohub,2013-06-06 17:27:00,
2013-06-06 13:33:00,73.9,68.7,29.63,North,-999,-999.0,-999.0,84,-99.99,,,-99.99,meteohub,2013-06-06 17:33:00,
2013-06-06 13:38:00,73.9,69.1,29.63,North,-999,-999.0,-999.0,85,-99.99,,,-99.99,meteohub,2013-06-06 17:38:00,
2013-06-06 13:43:00,74.1,69.3,29.63,North,-999,-999.0,-999.0,85,-99.99,,,-99.99,meteohub,2013-06-06 17:43:00,
2013-06-06 13:48:00,74.1,69.3,29.63,North,-999,-999.0,-999.0,85,-99.99,,,-99.99,meteohub,2013-06-06 17:48:00,
2013-06-06 13:53:00,74.1,69.3,29.63,North,-999,-999.0,-999.0,85,-99.99,,,-99.99,meteohub,2013-06-06 17:53:00,
2013-06-06 13:58:00,73.9,69.1,29.63,North,-999,-999.0,-999.0,85,-99.99,,,-99.99,meteohub,2013-06-06 17:58:00,
2013-06-06 14:04:00,73.8,68.9,29.63,North,-999,-999.0,-999.0,85,-99.99,,,-99.99,meteohub,2013-06-06 18:04:00,
2013-06-06 14:09:00,73.6,68.7,29.60,North,-999,-999.0,-999.0,85,-99.99,,,-99.99,meteohub,2013-06-06 18:09:00,
2013-06-06 14:14:00,73.2,69.1,29.60,North,-999,-999.0,-999.0,87,-99.99,,,-99.99,meteohub,2013-06-06 18:14:00,
2013-06-06 14:19:00,73.0,68.9,29.63,North,-999,-999.0,-999.0,87,-99.99,,,-99.99,meteohub,2013-06-06 18:19:00,
2013-06-06 14:25:00,73.0,69.3,29.63,North,-999,-999.0,-999.0,88,-99.99,,,-99.99,meteohub,2013-06-06 18:25:00,
2013-06-06 14:30:00,73.0,69.3,29.63,North,-999,-999.0,-999.0,88,-99.99,,,-99.99,meteohub,2013-06-06 18:30:00,
2013-06-06 14:35:00,73.2,69.4,29.60,North,-999,-999.0,-999.0,88,-99.99,,,-99.99,meteohub,2013-06-06 18:35:00,
2013-06-06 14:40:00,73.6,69.8,29.60,North,-999,-999.0,-999.0,88,-99.99,,,-99.99,meteohub,2013-06-06 18:40:00,
2013-06-06 14:45:00,73.8,70.0,29.60,North,-999,-999.0,-999.0,88,-99.99,,,-99.99,meteohub,2013-06-06 18:45:00,
2013-06-06 14:50:00,73.6,69.8,29.60,North,-999,-999.0,-999.0,88,-99.99,,,-99.99,meteohub,2013-06-06 18:50:00,
2013-06-06 14:55:00,73.4,69.6,29.60,North,-999,-999.0,-999.0,88,-99.99,,,-99.99,meteohub,2013-06-06 18:55:00,
2013-06-06 15:01:00,73.4,69.6,29.60,North,-999,-999.0,-999.0,88,-99.99,,,-99.99,meteohub,2013-06-06 19:01:00,
2013-06-06 15:06:00,73.4,69.6,29.60,North,-999,-999.0,-999.0,88,-99.99,,,-99.99,meteohub,2013-06-06 19:06:00,
2013-06-06 15:11:00,73.2,69.8,29.60,North,-999,-999.0,-999.0,89,-99.99,,,-99.99,meteohub,2013-06-06 19:11:00,
2013-06-06 15:16:00,73.2,69.8,29.60,North,-999,-999.0,-999.0,89,-99.99,,,-99.99,meteohub,2013-06-06 19:16:00,
2013-06-06 15:22:00,73.2,69.8,29.57,North,-999,-999.0,-999.0,89,-99.99,,,-99.99,meteohub,2013-06-06 19:22:00,
2013-06-06 15:27:00,73.2,69.8,29.57,North,-999,-999.0,-999.0,89,-99.99,,,-99.99,meteohub,2013-06-06 19:27:00,
2013-06-06 15:32:00,73.0,69.6,29.57,North,-999,-999.0,-999.0,89,-99.99,,,-99.99,meteohub,2013-06-06 19:32:00,
2013-06-06 15:36:00,73.0,69.6,29.57,North,-999,-999.0,-999.0,89,-99.99,,,-99.99,meteohub,2013-06-06 19:36:00,
2013-06-06 15:42:00,73.2,69.8,29.57,North,-999,-999.0,-999.0,89,-99.99,,,-99.99,meteohub,2013-06-06 19:42:00,
2013-06-06 15:47:00,73.2,70.2,29.57,North,-999,-999.0,-999.0,90,-99.99,,,-99.99,meteohub,2013-06-06 19:47:00,
2013-06-06 15:52:00,73.4,70.0,29.57,North,-999,-999.0,-999.0,89,-99.99,,,-99.99,meteohub,2013-06-06 19:52:00,
2013-06-06 15:57:00,73.6,70.2,29.57,North,-999,-999.0,-999.0,89,-99.99,,,-99.99,meteohub,2013-06-06 19:57:00,
2013-06-06 16:02:00,73.8,70.3,29.57,North,-999,-999.0,-999.0,89,-99.99,,,-99.99,meteohub,2013-06-06 20:02:00,
2013-06-06 16:08:00,73.8,70.3,29.57,North,-999,-999.0,-999.0,89,-99.99,,,-99.99,meteohub,2013-06-06 20:08:00,
2013-06-06 16:13:00,73.9,70.5,29.57,North,-999,-999.0,-999.0,89,-99.99,,,-99.99,meteohub,2013-06-06 20:13:00,
2013-06-06 16:18:00,73.9,70.5,29.57,North,-999,-999.0,-999.0,89,-99.99,,,-99.99,meteohub,2013-06-06 20:18:00,
2013-06-06 16:23:00,73.9,70.5,29.57,North,-999,-999.0,-999.0,89,-99.99,,,-99.99,meteohub,2013-06-06 20:23:00,
2013-06-06 16:28:00,74.1,70.7,29.57,North,-999,-999.0,-999.0,89,-99.99,,,-99.99,meteohub,2013-06-06 20:28:00,
2013-06-06 16:33:00,74.1,70.7,29.57,North,-999,-999.0,-999.0,89,-99.99,,,-99.99,meteohub,2013-06-06 20:33:00,
2013-06-06 16:38:00,74.3,70.9,29.57,North,-999,-999.0,-999.0,89,-99.99,,,-99.99,meteohub,2013-06-06 20:38:00,
2013-06-06 16:44:00,74.3,70.9,29.57,North,-999,-999.0,-999.0,89,-99.99,,,-99.99,meteohub,2013-06-06 20:44:00,
2013-06-06 16:49:00,74.1,70.7,29.57,North,-999,-999.0,-999.0,89,-99.99,,,-99.99,meteohub,2013-06-06 20:49:00,
2013-06-06 16:54:00,74.1,70.7,29.57,North,-999,-999.0,-999.0,89,-99.99,,,-99.99,meteohub,2013-06-06 20:54:00,
2013-06-06 16:59:00,74.1,70.7,29.57,North,-999,-999.0,-999.0,89,-99.99,,,-99.99,meteohub,2013-06-06 20:59:00,
2013-06-06 17:04:00,73.9,70.5,29.57,North,-999,-999.0,-999.0,89,-99.99,,,-99.99,meteohub,2013-06-06 21:04:00,
2013-06-06 17:09:00,73.8,70.3,29.57,North,-999,-999.0,-999.0,89,-99.99,,,-99.99,meteohub,2013-06-06 21:09:00,
2013-06-06 17:15:00,73.6,70.2,29.57,North,-999,-999.0,-999.0,89,-99.99,,,-99.99,meteohub,2013-06-06 21:15:00,
2013-06-06 17:20:00,73.4,70.0,29.57,North,-999,-999.0,-999.0,89,-99.99,,,-99.99,meteohub,2013-06-06 21:20:00,
2013-06-06 17:25:00,73.2,70.2,29.57,North,-999,-999.0,-999.0,90,-99.99,,,-99.99,meteohub,2013-06-06 21:25:00,
2013-06-06 17:30:00,73.0,70.0,29.57,North,-999,-999.0,-999.0,90,-99.99,,,-99.99,meteohub,2013-06-06 21:30:00,
2013-06-06 17:36:00,72.9,69.8,29.57,North,-999,-999.0,-999.0,90,-99.99,,,-99.99,meteohub,2013-06-06 21:36:00,
2013-06-06 17:41:00,72.9,69.8,29.57,North,-999,-999.0,-999.0,90,-99.99,,,-99.99,meteohub,2013-06-06 21:41:00,
2013-06-06 17:46:00,72.7,70.0,29.57,North,-999,-999.0,-999.0,91,-99.99,,,-99.99,meteohub,2013-06-06 21:46:00,
2013-06-06 17:51:00,72.5,69.8,29.57,North,-999,-999.0,-999.0,91,-99.99,,,-99.99,meteohub,2013-06-06 21:51:00,
2013-06-06 17:57:00,72.5,69.8,29.57,North,-999,-999.0,-999.0,91,-99.99,,,-99.99,meteohub,2013-06-06 21:57:00,
2013-06-06 18:02:00,72.5,70.0,29.57,North,-999,-999.0,-999.0,92,-99.99,,,-99.99,meteohub,2013-06-06 22:02:00,
2013-06-06 18:07:00,72.5,70.0,29.57,North,-999,-999.0,-999.0,92,-99.99,,,-99.99,meteohub,2013-06-06 22:07:00,
2013-06-06 18:12:00,72.5,70.0,29.57,North,-999,-999.0,-999.0,92,-99.99,,,-99.99,meteohub,2013-06-06 22:12:00,
2013-06-06 18:17:00,72.5,70.0,29.57,North,-999,-999.0,-999.0,92,-99.99,,,-99.99,meteohub,2013-06-06 22:17:00,
2013-06-06 18:22:00,72.5,70.0,29.57,North,-999,-999.0,-999.0,92,-99.99,,,-99.99,meteohub,2013-06-06 22:22:00,
2013-06-06 18:27:00,72.5,70.0,29.57,North,-999,-999.0,-999.0,92,-99.99,,,-99.99,meteohub,2013-06-06 22:27:00,
2013-06-06 18:32:00,72.3,69.8,29.57,North,-999,-999.0,-999.0,92,-99.99,,,-99.99,meteohub,2013-06-06 22:32:00,
2013-06-06 18:37:00,72.3,69.8,29.57,North,-999,-999.0,-999.0,92,-99.99,,,-99.99,meteohub,2013-06-06 22:37:00,
2013-06-06 18:42:00,72.3,69.8,29.57,North,-999,-999.0,-999.0,92,-99.99,,,-99.99,meteohub,2013-06-06 22:42:00,
2013-06-06 18:47:00,72.1,69.6,29.57,North,-999,-999.0,-999.0,92,-99.99,,,-99.99,meteohub,2013-06-06 22:47:00,
2013-06-06 18:53:00,72.1,69.6,29.57,North,-999,-999.0,-999.0,92,-99.99,,,-99.99,meteohub,2013-06-06 22:53:00,
2013-06-06 18:58:00,72.0,69.4,29.57,North,-999,-999.0,-999.0,92,-99.99,,,-99.99,meteohub,2013-06-06 22:58:00,
2013-06-06 19:03:00,72.0,69.4,29.57,North,-999,-999.0,-999.0,92,-99.99,,,-99.99,meteohub,2013-06-06 23:03:00,
2013-06-06 19:08:00,72.0,69.4,29.57,North,-999,-999.0,-999.0,92,-99.99,,,-99.99,meteohub,2013-06-06 23:08:00,
2013-06-06 19:13:00,71.8,69.3,29.57,North,-999,-999.0,-999.0,92,-99.99,,,-99.99,meteohub,2013-06-06 23:13:00,
2013-06-06 19:18:00,71.8,69.3,29.57,North,-999,-999.0,-999.0,92,-99.99,,,-99.99,meteohub,2013-06-06 23:18:00,
2013-06-06 19:23:00,71.8,69.3,29.57,North,-999,-999.0,-999.0,92,-99.99,,,-99.99,meteohub,2013-06-06 23:23:00,
2013-06-06 19:29:00,71.6,69.1,29.57,North,-999,-999.0,-999.0,92,-99.99,,,-99.99,meteohub,2013-06-06 23:29:00,
2013-06-06 19:34:00,71.6,69.1,29.57,North,-999,-999.0,-999.0,92,-99.99,,,-99.99,meteohub,2013-06-06 23:34:00,
2013-06-06 19:39:00,71.6,69.1,29.57,North,-999,-999.0,-999.0,92,-99.99,,,-99.99,meteohub,2013-06-06 23:39:00,
2013-06-06 19:44:00,71.6,69.1,29.57,North,-999,-999.0,-999.0,92,-99.99,,,-99.99,meteohub,2013-06-06 23:44:00,
2013-06-06 19:49:00,71.4,69.3,29.57,North,-999,-999.0,-999.0,93,-99.99,,,-99.99,meteohub,2013-06-06 23:49:00,
2013-06-06 19:54:00,71.4,69.3,29.57,North,-999,-999.0,-999.0,93,-99.99,,,-99.99,meteohub,2013-06-06 23:54:00,
2013-06-06 20:00:00,71.4,69.3,29.57,North,-999,-999.0,-999.0,93,-99.99,,,-99.99,meteohub,2013-06-07 00:00:00,
2013-06-06 20:05:00,71.4,69.3,29.57,North,-999,-999.0,-999.0,93,-99.99,,,-99.99,meteohub,2013-06-07 00:05:00,
2013-06-06 20:10:00,71.2,69.1,29.57,North,-999,-999.0,-999.0,93,-99.99,,,-99.99,meteohub,2013-06-07 00:10:00,
2013-06-06 20:15:00,71.2,69.1,29.57,North,-999,-999.0,-999.0,93,-99.99,,,-99.99,meteohub,2013-06-07 00:15:00,
2013-06-06 20:20:00,71.1,68.9,29.57,North,-999,-999.0,-999.0,93,-99.99,,,-99.99,meteohub,2013-06-07 00:20:00,
2013-06-06 20:25:00,70.9,68.7,29.57,North,-999,-999.0,-999.0,93,-99.99,,,-99.99,meteohub,2013-06-07 00:25:00,
2013-06-06 20:31:00,70.7,68.2,29.57,North,-999,-999.0,-999.0,92,-99.99,,,-99.99,meteohub,2013-06-07 00:31:00,
2013-06-06 20:36:00,70.5,68.0,29.57,North,-999,-999.0,-999.0,92,-99.99,,,-99.99,meteohub,2013-06-07 00:36:00,
2013-06-06 20:41:00,70.3,67.8,29.57,North,-999,-999.0,-999.0,92,-99.99,,,-99.99,meteohub,2013-06-07 00:41:00,
2013-06-06 20:46:00,70.3,68.2,29.57,North,-999,-999.0,-999.0,93,-99.99,,,-99.99,meteohub,2013-06-07 00:46:00,
2013-06-06 20:51:00,70.2,68.0,29.57,North,-999,-999.0,-999.0,93,-99.99,,,-99.99,meteohub,2013-06-07 00:51:00,
2013-06-06 20:57:00,70.2,68.0,29.57,North,-999,-999.0,-999.0,93,-99.99,,,-99.99,meteohub,2013-06-07 00:57:00,
2013-06-06 21:02:00,70.0,67.8,29.57,North,-999,-999.0,-999.0,93,-99.99,,,-99.99,meteohub,2013-06-07 01:02:00,
2013-06-06 21:07:00,70.0,67.8,29.60,North,-999,-999.0,-999.0,93,-99.99,,,-99.99,meteohub,2013-06-07 01:07:00,
2013-06-06 21:12:00,70.0,67.8,29.60,North,-999,-999.0,-999.0,93,-99.99,,,-99.99,meteohub,2013-06-07 01:12:00,
2013-06-06 21:17:00,69.8,67.6,29.60,North,-999,-999.0,-999.0,93,-99.99,,,-99.99,meteohub,2013-06-07 01:17:00,
2013-06-06 21:22:00,69.8,67.6,29.60,North,-999,-999.0,-999.0,93,-99.99,,,-99.99,meteohub,2013-06-07 01:22:00,
2013-06-06 21:27:00,69.8,67.6,29.60,North,-999,-999.0,-999.0,93,-99.99,,,-99.99,meteohub,2013-06-07 01:27:00,
2013-06-06 21:33:00,69.8,67.6,29.60,North,-999,-999.0,-999.0,93,-99.99,,,-99.99,meteohub,2013-06-07 01:33:00,
2013-06-06 21:38:00,69.8,67.6,29.57,North,-999,-999.0,-999.0,93,-99.99,,,-99.99,meteohub,2013-06-07 01:38:00,
2013-06-06 21:43:00,69.6,67.5,29.57,North,-999,-999.0,-999.0,93,-99.99,,,-99.99,meteohub,2013-06-07 01:43:00,
2013-06-06 21:48:00,69.6,67.5,29.57,North,-999,-999.0,-999.0,93,-99.99,,,-99.99,meteohub,2013-06-07 01:48:00,
2013-06-06 21:54:00,69.6,67.5,29.57,North,-999,-999.0,-999.0,93,-99.99,,,-99.99,meteohub,2013-06-07 01:54:00,
2013-06-06 21:59:00,69.6,67.5,29.57,North,-999,-999.0,-999.0,93,-99.99,,,-99.99,meteohub,2013-06-07 01:59:00,
2013-06-06 22:04:00,69.6,67.5,29.57,North,-999,-999.0,-999.0,93,-99.99,,,-99.99,meteohub,2013-06-07 02:04:00,
2013-06-06 22:09:00,69.6,67.5,29.57,North,-999,-999.0,-999.0,93,-99.99,,,-99.99,meteohub,2013-06-07 02:09:00,
2013-06-06 22:14:00,69.6,67.5,29.57,North,-999,-999.0,-999.0,93,-99.99,,,-99.99,meteohub,2013-06-07 02:14:00,
2013-06-06 22:19:00,69.6,67.5,29.57,North,-999,-999.0,-999.0,93,-99.99,,,-99.99,meteohub,2013-06-07 02:19:00,
2013-06-06 22:25:00,69.6,67.5,29.57,North,-999,-999.0,-999.0,93,-99.99,,,-99.99,meteohub,2013-06-07 02:25:00,
2013-06-06 22:30:00,69.4,67.3,29.57,North,-999,-999.0,-999.0,93,-99.99,,,-99.99,meteohub,2013-06-07 02:30:00,
2013-06-06 22:35:00,69.4,67.3,29.57,North,-999,-999.0,-999.0,93,-99.99,,,-99.99,meteohub,2013-06-07 02:35:00,
2013-06-06 22:40:00,69.4,67.6,29.57,North,-999,-999.0,-999.0,94,-99.99,,,-99.99,meteohub,2013-06-07 02:40:00,
2013-06-06 22:45:00,69.4,67.6,29.57,North,-999,-999.0,-999.0,94,-99.99,,,-99.99,meteohub,2013-06-07 02:45:00,
2013-06-06 22:50:00,69.4,67.6,29.57,North,-999,-999.0,-999.0,94,-99.99,,,-99.99,meteohub,2013-06-07 02:50:00,
2013-06-06 22:56:00,69.4,67.6,29.57,North,-999,-999.0,-999.0,94,-99.99,,,-99.99,meteohub,2013-06-07 02:56:00,
2013-06-06 23:01:00,69.4,67.6,29.57,North,-999,-999.0,-999.0,94,-99.99,,,-99.99,meteohub,2013-06-07 03:01:00,
2013-06-06 23:06:00,69.4,67.6,29.57,North,-999,-999.0,-999.0,94,-99.99,,,-99.99,meteohub,2013-06-07 03:06:00,
2013-06-06 23:11:00,69.4,67.6,29.57,North,-999,-999.0,-999.0,94,-99.99,,,-99.99,meteohub,2013-06-07 03:11:00,
2013-06-06 23:16:00,69.3,67.5,29.57,North,-999,-999.0,-999.0,94,-99.99,,,-99.99,meteohub,2013-06-07 03:16:00,
2013-06-06 23:21:00,69.3,67.5,29.57,North,-999,-999.0,-999.0,94,-99.99,,,-99.99,meteohub,2013-06-07 03:21:00,
2013-06-06 23:27:00,69.3,67.5,29.57,North,-999,-999.0,-999.0,94,-99.99,,,-99.99,meteohub,2013-06-07 03:27:00,
2013-06-06 23:32:00,69.3,67.5,29.57,North,-999,-999.0,-999.0,94,-99.99,,,-99.99,meteohub,2013-06-07 03:32:00,
2013-06-06 23:37:00,69.3,67.5,29.57,North,-999,-999.0,-999.0,94,-99.99,,,-99.99,meteohub,2013-06-07 03:37:00,
2013-06-06 23:42:00,69.3,67.5,29.57,North,-999,-999.0,-999.0,94,-99.99,,,-99.99,meteohub,2013-06-07 03:42:00,
2013-06-06 23:47:00,69.3,67.5,29.57,North,-999,-999.0,-999.0,94,-99.99,,,-99.99,meteohub,2013-06-07 03:47:00,
2013-06-06 23:52:00,69.3,67.5,29.57,North,-999,-999.0,-999.0,94,-99.99,,,-99.99,meteohub,2013-06-07 03:52:00,
2013-06-06 23:57:00,69.3,67.5,29.57,North,-999,-999.0,-999.0,94,-99.99,,,-99.99,meteohub,2013-06-07 03:57:00,